CST,Max TemperatureF,Mean TemperatureF,Min TemperatureF,Max Dew PointF,MeanDew PointF,Min DewpointF,Max Humidity, Mean Humidity, Min Humidity, Max Sea Level PressureIn, Mean Sea Level PressureIn, Min Sea Level PressureIn, Max VisibilityMiles, Mean VisibilityMiles, Min VisibilityMiles, Max Wind SpeedMPH, Mean Wind SpeedMPH, Max Gust SpeedMPH,PrecipitationIn, CloudCover, Events, WindDirDegrees
2013-12-1,33,26,19,27,23,16,96,88,75,30.19,30.08,29.95,8,3,0,8,4,,0.00,2,Fog,342
2013-12-2,36,28,19,30,26,16,93,86,75,29.98,29.82,29.71,9,3,0,18,6,25,0.02,6,Fog-Snow,116
2013-12-3,33,30,28,31,29,26,100,91,86,29.82,29.75,29.69,10,3,0,18,13,28,0.07,8,Fog-Rain-Snow,99
2013-12-4,35,32,28,36,30,25,100,92,80,29.82,29.59,29.38,10,4,0,20,12,29,0.04,8,Fog-Rain,106
2013-12-5,28,16,1,23,5,-3,81,73,62,30.31,29.96,29.53,10,9,3,22,17,31,0.00,4,Snow,270
2013-12-6,7,2,-2,-3,-6,-9,82,74,61,30.62,30.45,30.31,10,10,10,13,10,20,0.00,0,,290
2013-12-7,3,-3,-9,-8,-10,-14,83,73,58,30.74,30.67,30.61,10,10,10,12,6,,0.00,0,,275
2013-12-8,10,4,-2,7,0,-9,85,78,72,30.61,30.28,29.94,10,2,1,12,6,,0.00,8,Snow,86
2013-12-9,10,2,-9,7,0,-13,85,77,60,30.14,29.97,29.88,10,5,0,20,9,28,0.00,6,Snow,272
2013-12-10,7,0,-8,1,-4,-13,85,76,61,30.23,29.91,29.75,10,5,1,21,8,29,0.00,6,Snow,234
2013-12-11,7,-1,-9,2,-11,-16,80,68,52,30.53,30.42,30.13,10,10,6,20,11,22,0.00,2,,286
2013-12-12,16,5,-6,8,-3,-12,82,73,64,30.42,30.22,30.10,10,7,1,10,7,,0.00,6,Snow,238
2013-12-13,16,13,10,8,5,1,77,71,64,30.32,30.22,30.10,10,9,2,15,9,,0.00,8,Snow,55
2013-12-14,18,14,10,13,9,5,88,80,74,30.30,30.08,29.90,7,3,1,16,10,20,0.00,8,Snow,37
2013-12-15,10,0,-11,4,-8,-17,79,71,54,30.18,30.04,29.89,10,9,1,21,15,23,0.00,2,Snow,306
2013-12-16,12,0,-11,10,1,-17,88,80,67,30.18,30.01,29.91,10,5,0,13,5,,0.04,8,Fog-Snow,206
2013-12-17,30,21,12,23,17,3,92,82,67,30.07,29.86,29.77,10,5,0,22,12,30,0.05,8,Fog-Snow,275
2013-12-18,30,16,1,23,9,-1,88,74,58,30.08,29.89,29.72,10,10,6,14,7,,0.00,1,,216
2013-12-19,25,21,17,18,15,12,100,82,68,30.04,29.92,29.73,10,6,0,17,6,22,0.00,5,Fog-Snow,23
2013-12-20,21,18,16,18,14,11,88,81,74,30.01,29.92,29.79,10,7,2,14,11,21,0.00,8,Snow,54
2013-12-21,26,24,21,21,19,16,93,85,71,29.96,29.88,29.79,10,7,2,14,5,,0.00,8,,31
2013-12-22,23,22,19,20,17,14,92,82,68,30.14,29.92,29.80,10,3,0,12,9,,0.00,8,Fog-Snow,16
2013-12-23,19,7,-7,18,5,-10,93,82,73,30.47,30.24,30.08,10,2,0,12,5,,0.00,8,Fog-Snow,284
2013-12-24,10,-2,-13,7,-5,-18,100,83,70,30.54,30.36,30.14,10,3,0,15,6,,0.02,6,Fog-Snow,190
2013-12-25,18,13,8,16,9,3,92,83,77,30.22,30.07,29.99,7,3,1,15,9,,0.01,8,Snow,237
2013-12-26,19,11,3,13,9,2,96,81,68,30.22,30.15,30.03,10,7,1,10,5,,0.00,7,Snow,248
2013-12-27,36,22,7,26,15,2,92,85,67,30.23,30.10,29.93,10,5,0,14,4,,0.00,3,Fog,202
2013-12-28,43,30,18,30,23,16,100,84,58,30.01,29.88,29.73,10,4,0,14,4,,0.00,0,Fog,209
2013-12-29,30,6,-17,29,6,-24,93,74,61,30.29,30.00,29.73,10,9,4,21,14,33,0.00,5,Snow,338
2013-12-30,-2,-11,-20,-9,-17,-26,82,71,51,30.36,30.26,30.12,10,8,2,6,4,,0.00,5,Snow,288
2013-12-31,1,-6,-14,-8,-12,-20,87,74,57,30.44,30.31,30.14,10,9,7,14,7,,0.00,4,,302